Regional Weather Roundup
Issued by NWS

Home | Current Version | Previous Version | Graphics & Text | Print | Product List | Glossary On
Versions: 1 2 3 4 5 6 7 8 9 10 11 12 13 14 15 16 17 18 19 20 21 22 23 24 25 26 27 28 29 30 31 32 33 34 35 36 37 38 39 40 41 42 43 44 45 46 47 48 49 50
000
ASUS43 KDMX 302204
RWRIA

WEATHER ROUNDUP FOR IOWA
NATIONAL WEATHER SERVICE DES MOINES IA
  ISSUED BY NWS QUAD CITIES IA IL
400 PM CST FRI JAN 30 2015

NOTE: "FAIR" INDICATES FEW OR NO CLOUDS BELOW 12,000 FEET WITH NO
SIGNIFICANT WEATHER AND/OR OBSTRUCTIONS TO VISIBILITY.

* - THESE STATIONS ARE NOT NWS STATIONS...THUS NOT UNDER NWS
QUALITY CONTROL.  THEY ALSO DO NOT REPORT WEATHER SUCH
AS PRECIPITATION OR FOG.

IAZ001>003-012>014-020>022-031>034-043>046-302300-
   NORTHWEST IOWA

CITY           SKY/WX    TMP DP  RH WIND       PRES   REMARKS
CARROLL *      SUNNY     36  21  55 S13       30.35F WCI  27
CHEROKEE *     CLEAR     35  26  69 S13       30.30F WCI  26
DENNISON *     SUNNY     37  23  56 S12       30.32F WCI  30
LE MARS *      SUNNY     37  27  65 S15G21    30.28F WCI  28
ORANGE CITY *  SUNNY     36  27  69 S13       30.27F WCI  27
SIOUX CITY     MOSUNNY   39  27  62 S13       30.30F WCI  31
SPENCER        SUNNY     35  25  66 S15       30.29F WCI  25
$$

IAZ055>058-069>071-079>083-090>094-302300-
   SOUTHWEST IOWA

CITY           SKY/WX    TMP DP  RH WIND       PRES   REMARKS
ATLANTIC *     SUNNY     37  19  48 S12       30.37S WCI  30
AUDUBON *      SUNNY     37  19  48 S10       30.37S WCI  30
CLARINDA *     PTSUNNY   36  19  51 S13       30.41F WCI  27
COUNCIL BLFS * MOSUNNY   34  23  64 S10       30.34F WCI  26
CRESTON *      SUNNY     34  18  51 SW12      30.38F WCI  25
HARLAN *       SUNNY     36  23  60 S15       30.39F WCI  26
LAMONI         SUNNY     35  13  40 SW10      30.40F WCI  27
RED OAK *      MOSUNNY   36  21  55 S13       30.38F WCI  27
SHENANDOAH *   PTSUNNY   37  23  56 S10       30.40F WCI  30
$$

IAZ047>049-059>061-072>074-084-302300-
   CENTRAL IOWA

CITY           SKY/WX    TMP DP  RH WIND       PRES   REMARKS
AMES           SUNNY     32  13  45 S5        30.40F WCI  27
ANKENY *       SUNNY     34  12  40 S7        30.41F WCI  28
BOONE *        SUNNY     34  16  47 S8        30.37F WCI  27
CHARITON *     SUNNY     36  16  44 SW8       30.41F WCI  29
DES MOINES     PTSUNNY   36  12  37 SW7       30.41F WCI  30
GRINNELL *     CLEAR     31  13  46 S5        30.42F WCI  26
KNOXVILLE *    SUNNY     34  10  37 W6        30.40F WCI  29
MARSHALLTOWN   SUNNY     30  11  45 S8        30.39F WCI  22
PELLA *        SUNNY     35  13  40 SW5       30.44F WCI  31
PERRY *          N/A     36  19  49 S6        30.38F WCI  31
$$

IAZ004>006-015-016-023>025-035-036-302300-
   NORTH CENTRAL IOWA

CITY           SKY/WX    TMP DP  RH WIND       PRES   REMARKS
ALGONA *       SUNNY     32  23  69 S16       30.33F WCI  21
CLARION *      SUNNY     30  21  69 S13       30.35F WCI  20
ESTHERVILLE    SUNNY     31  23  72 S18       30.29F WCI  19
FORT DODGE *   SUNNY     34  18  51 S9        30.36F WCI  26
MASON CITY     SUNNY     29  18  63 S10       30.36F WCI  20
WEBSTER CITY * SUNNY     32  16  51 S10       30.35F WCI  24
IOWA FALLS *   FAIR      30  17  56 S9        30.38F WCI  22
$$

IAZ007>011-017>019-026>030-037>042-050>054-066-302300-
   NORTHEAST IOWA

CITY           SKY/WX    TMP DP  RH WIND       PRES   REMARKS
CEDAR RAPIDS   SUNNY     30  12  47 SW7       30.42F WCI  23
CHARLES CITY * SUNNY     28  10  47 S12       30.38F WCI  18
CLINTON *      SUNNY     27  12  54 SW6       30.48S WCI  20
DECORAH *      SUNNY     27   3  36 VRB6      30.37F WCI  20
DUBUQUE        SUNNY     26  13  57 SW7       30.41F WCI  18
MONTICELLO *   SUNNY     30  14  51 S6        30.42F WCI  24
OELWEIN *      SUNNY     28  10  47 S9        30.40F WCI  20
WATERLOO       SUNNY     29  10  45 S7        30.40F WCI  22
$$

IAZ064-065-067-068-078-302300-
   EAST CENTRAL IOWA

CITY           SKY/WX    TMP DP  RH WIND       PRES   REMARKS
DAVENPORT      SUNNY     28  15  58 CALM      30.45F
IOWA CITY      SUNNY     30  15  53 SW6       30.46F WCI  24
MT. PLEASANT * SUNNY     33  17  52 S3        30.45F
MUSCATINE *    SUNNY     32  16  51 S5        30.47F WCI  27
QUAD CITIES    SUNNY     30  14  51 S6        30.46S WCI  24
$$

IAZ062-063-075>077-085>089-095>099-302300-
   SOUTHEAST IOWA

CITY           SKY/WX    TMP DP  RH WIND       PRES   REMARKS
BURLINGTON     SUNNY     32  16  51 SW7       30.45F WCI  26
FAIRFIELD *    SUNNY     32  14  47 SW6       30.45S WCI  26
FORT MADISON * SUNNY     34  18  51 W3        30.46F
KEOKUK *       SUNNY     34  16  47 CALM      30.45F
OTTUMWA        SUNNY     34  13  41 CALM      30.43F
WASHINGTON *   SUNNY     32  16  51 SW6       30.45S WCI  26
$$

ABBREVIATIONS USED IN REMARKS
   TC - TEMPERATURES IN CELSIUS
  WCI - WIND CHILL INDEX
   HX - HEAT INDEX
  VSB - VISIBILITY
$$


USA.gov is the U.S. government's official web portal to all federal, state and local government web resources and services.